Location: Gro� Glienicke
(52.4675°N, 13.1079°E)
Time: 02:48:04
(UTC+00:00)

Cosmos 158 Rocket - Pass Details

Date: 06 July 2020
Orbit: 698 x 794 km, 74.0° (Epoch: 04 August)

Event Time Altitude Azimuth Distance (km) Brightness Sun altitude
Exits shadow 22:09:33 13° 206° (SSW) 1,986 5.7 -13.7°
Maximum altitude 22:13:58 86° 295° (WNW) 711 3.8 -13.9°
Drops below altitude 10° 22:18:56 10° 25° (NNE) 2,196 7.2 -14.1°
Sets 22:21:17 0° 26° (NNE) 3,130 8.0 -14.1°
